Back to catalog

FENGYUN 1C DEB

AlivePO
NORAD 31678·DEBRIS·🇨🇳 China

Launched May 10, 1999 from Taiyuan Satellite Launch Center

Loading…

Next Passes (next 24 hours)

TLE

FreshSource: Space-Track

Epoch: Sep 14, 2026, 14:51 UTC

1 31678U 99025CCL 26257.61920247  .00003932  00000-0  58792-3 0  9994
2 31678  98.8235  27.1091 0245479 267.2261  90.0819 14.57044388  8312

Track FENGYUN 1C DEB in real time with AllMySat

Download on the App Store